Location: North Runcton
(52.7000°N, 0.4333°E)
Time: 15:13:20
(UTC+00:00)

Daily predictions for brighter satellites

Satellite Brightness Start Highest point End
(mag) Time Altitude Azimuth Time Altitude Azimuth Time Altitude Azimuth
Cosmos 1624 Rocket 4.0 20:07:46 10° SSW 20:12:56 80° ESE 20:18:08 10° NNE
Gbstr 26 Del rocket 3.4 20:08:30 10° W 20:13:53 67° SSW 20:18:16 10° ESE
Terra 1.9 20:10:06 10° SSE 20:14:48 82° WSW 20:19:32 10° NNW
Cosmos 2360 Rocket 4.3 20:11:12 10° NNW 20:15:02 18° NNE 20:18:52 10° ENE
Sich 1 Rocket 3.9 20:13:02 10° SSE 20:17:11 46° E 20:21:23 10° NNE
Cosmos 1900 4.4 20:12:16 10° SW 20:17:14 88° SE 20:22:11 10° NE
SJ 16-02 3.8 20:16:02 10° NW 20:19:06 19° W 20:22:07 10° SW
USA 229 DEB 4.5 20:17:31 10° NW 20:24:48 59° SW 20:32:50 10° SSE
USA 229 4.5 20:17:34 10° NW 20:24:52 60° SW 20:32:55 10° SSE
MetOp-B 4.5 20:20:06 10° S 20:25:26 71° WSW 20:30:49 10° NNW
Cosmos 1743 2.8 20:22:44 10° N 20:25:35 37° ENE 20:28:24 10° SE
CZ-2C R/B 4.2 20:24:23 10° E 20:25:53 14° ENE 20:27:22 10° NNE
SKYMED 3 4.3 20:25:40 10° NNE 20:29:37 71° ESE 20:33:32 10° S
Cosmos 44 Rocket 4.1 20:27:00 10° S 20:31:30 33° ESE 20:36:06 10° NE
ISS -1.9 20:30:16 10° S 20:32:01 14° SE 20:33:47 10° ESE
Cosmos 2219 Rocket 4.4 20:28:54 10° NNW 20:32:30 17° NNE 20:36:06 10° ENE
Cosmos 1459 Rocket 4.0 20:26:58 10° S 20:33:10 71° E 20:39:18 10° NNE
Cosmos 2100 Rocket 4.0 20:30:30 10° S 20:36:43 81° E 20:43:03 10° NNE
Ariane Rocket 3.7 20:32:30 10° SE 20:37:11 40° ENE 20:41:54 10° N
ATLAS 2AS CENTAUR R/B 2.9 20:32:57 10° SW 20:39:55 83° NW 20:46:47 10° NE
ADEOS 4.1 20:34:52 10° S 20:40:00 60° WSW 20:45:12 10° NNW
Cosmos 2369 4.1 20:35:25 10° NNW 20:41:02 54° NE 20:46:24 11° SE
SL-4 R/B 3.5 20:38:32 10° W 20:41:32 22° SW 20:44:36 10° SSE
BREEZE-M DEB (TANK) 4.1 20:38:51 10° W 20:41:33 32° SSW 20:47:10 11° SE
Cosmos 2322 Rocket 3.9 20:38:34 10° NNW 20:43:02 23° NE 20:47:30 10° E
Spot 2 Rocket 3.6 20:38:02 10° SSE 20:43:03 84° WSW 20:48:07 10° NNW
Cosmos 2151 Rocket 4.1 20:40:45 10° SSW 20:45:03 61° WNW 20:49:25 10° N
MOS 1-B 4.4 20:40:54 10° SSE 20:46:43 85° WSW 20:52:34 10° NNW
Cosmos 2082 Rocket 3.1 20:42:26 10° SSE 20:47:16 29° ESE 20:52:06 10° NE
Okean 2 Rocket 3.3 20:42:57 10° SSW 20:47:25 76° WNW 20:51:57 10° N
USA 305 2.6 20:43:27 10° WNW 20:47:34 89° N 20:51:08 11° ESE
Cosmos 2151 4.4 20:46:35 10° NNE 20:49:58 23° ENE 20:52:53 12° ESE
Cosmos 1626 Rocket 4.4 20:52:48 10° N 20:56:51 36° ENE 21:00:04 15° SE
Cosmos 1607 4.5 20:52:29 10° S 20:57:59 36° ESE 21:03:36 10° NE
Cosmos 2233 Rocket 4.2 20:52:18 10° SSE 20:58:19 54° E 21:04:19 10° NNE
Cosmos 2228 3.3 20:55:36 10° SSE 20:59:29 45° E 21:03:25 10° NNE
USA 186 2.1 20:58:27 10° S 21:01:01 47° W 21:03:41 10° NNW
Helios 1A Rocket 4.3 20:58:19 10° N 21:01:10 31° WNW 21:03:59 10° SW
Timation 1 Rocket 4.3 20:55:24 10° SSW 21:01:23 75° ESE 21:07:24 10° NE
Okean O Rocket 2.1 20:58:07 10° S 21:02:20 57° WSW 21:06:36 10° NNW
Tsikada Rocket 4.0 20:56:53 10° N 21:03:06 74° ENE 21:08:51 12° SSE
Cosmos 1697 Rocket 4.0 21:00:36 10° NW 21:05:36 34° WSW 21:10:35 10° S
CZ-4C R/B 1.8 21:04:20 10° SSW 21:08:32 60° SE 21:13:58 10° NE
Cosmos 1725 Rocket 4.0 21:03:04 10° S 21:09:21 87° E 21:15:39 10° N
Cosmos 1452 Rocket 3.5 21:04:33 10° SSW 21:09:45 72° ESE 21:14:59 10° NNE
SL-16 R/B 3.0 21:04:48 10° NNW 21:10:13 43° NE 21:14:58 13° ESE
COSMOS 2406 4.5 21:07:29 15° SE 21:10:31 22° ESE 21:14:50 10° NE
Cosmos 1867 4.3 21:07:37 10° WSW 21:13:00 58° NW 21:18:24 10° NE
ATLAS 3B R/B 3.7 21:06:50 10° NW 21:14:05 44° WSW 21:20:47 11° S
Okean-O 3.5 21:11:06 10° S 21:15:18 45° W 21:19:32 10° NNW
Cosmos 1331 Rocket 4.2 21:13:45 10° SSW 21:18:59 75° WNW 21:24:14 10° NNE
Cosmos 1892 Rocket 4.2 21:14:58 10° NNW 21:19:11 53° W 21:23:22 10° S
CZ-4B R/B 3.3 21:19:07 15° SSE 21:22:59 86° WSW 21:27:49 10° NNW
Cosmos 2333 Rocket 2.9 21:17:40 10° NNW 21:23:10 47° NE 21:27:39 15° ESE
Cosmos 1455 Rocket 3.4 21:21:26 10° SSW 21:25:50 67° WNW 21:30:13 10° N
Cosmos 1302 Rocket 4.0 21:22:22 10° S 21:27:27 63° ESE 21:32:35 10° NNE
Cosmos 2016 Rocket 4.2 21:22:11 10° SSW 21:28:28 77° WNW 21:34:43 10° N
SL-08 R/B 4.5 21:24:05 10° N 21:28:45 46° WNW 21:33:19 10° SW
Cosmos 1980 Rocket 3.1 21:28:31 10° NW 21:33:54 43° WSW 21:38:33 13° S
CZ-4B R/B 3.2 21:33:11 17° S 21:35:33 47° W 21:38:51 10° NNW
Cosmos 2061 Rocket 4.0 21:30:01 10° S 21:36:13 82° E 21:42:32 10° NNE
Cosmos 1782 3.0 21:33:07 10° SSW 21:36:35 59° WNW 21:40:06 10° N
Cosmos 1544 Rocket 3.8 21:35:33 21° SSE 21:38:11 51° E 21:42:24 10° NNE
Cosmos 724 4.2 21:32:30 10° SSW 21:38:30 73° SE 21:44:24 10° NE
SPOT 3 Rocket 4.0 21:34:29 14° S 21:38:55 58° WSW 21:44:00 10° NNW
NOSS 3-3 (A) 4.1 21:34:36 10° S 21:39:28 42° ESE 21:45:14 10° NE
Cosmos 1933 3.7 21:44:20 27° SE 21:45:52 42° E 21:49:29 10° NNE
Cosmos 2084 Rocket 3.7 21:44:05 10° NW 21:48:12 56° SW 21:50:19 27° SSE
Cosmos 1758 Rocket 3.6 21:46:39 10° NNW 21:51:02 80° W 21:53:42 23° S
Helios 1B rocket 3.3 21:51:51 22° ESE 21:53:14 30° ENE 21:56:22 10° N
CZ-2C R/B 3.0 21:55:17 26° SSW 21:56:23 38° W 21:59:02 10° NNW
Cosmos 1464 Rocket 4.4 21:53:23 22° SSE 21:56:56 45° E 22:02:46 10° NNE
Gbstr 26 Del rocket 4.3 21:55:39 10° W 21:59:33 25° SW 22:00:52 21° SSW
Cosmos 2360 Rocket 2.8 21:54:51 10° NNW 22:00:24 51° NE 22:04:14 20° ESE
Meteor 2-10 4.5 21:58:00 10° N 22:03:40 59° ENE 22:06:57 25° SE
NOSS 3-3 (C) 3.9 22:02:52 14° SSW 22:07:17 53° SE 22:13:24 10° NE
Cosmos 1825 Rocket 4.0 22:03:08 10° N 22:07:21 49° ENE 22:09:11 29° SE
ISS -3.5 22:05:01 10° SW 22:08:13 44° SSE 22:08:14 44° SSE
Geosat 4.0 22:03:45 10° NE 22:08:44 64° ESE 22:12:24 18° SSW
ALOS 2 4.2 22:06:32 16° ESE 22:08:51 25° ENE 22:12:26 10° N
ARIANE 5 R/B 3.9 22:07:11 19° ESE 22:09:26 30° ENE 22:13:18 10° N
Cosmos 44 Rocket 4.0 22:07:39 10° WSW 22:12:42 60° NW 22:17:52 10° NE
USA 305 3.3 22:09:04 10° WNW 22:12:42 33° SW 22:13:09 32° SSW
BREEZE-M R/B 4.3 22:05:47 10° W 22:15:15 78° S 22:20:54 10° E
Ariane Rocket 4.1 22:12:25 15° SSW 22:16:06 36° W 22:20:48 10° NNW
Cosmos 1602 Rocket 3.5 22:12:24 10° NNW 22:16:42 75° W 22:18:42 31° S
Cosmos 2219 Rocket 3.0 22:12:29 10° NNW 22:17:56 46° NE 22:21:47 19° ESE
DEBRIS 4.0 22:14:47 10° WSW 22:18:35 68° S 22:32:09 10° E
NOSS 3-4 (A) 3.8 22:14:00 10° NW 22:20:29 81° NE 22:26:01 20° SE
NOSS 3-4 (C) 3.8 22:14:35 10° NW 22:21:07 80° NE 22:26:40 20° SE
Cosmos 1437 Rocket 2.5 22:21:47 35° SSW 22:23:10 79° WNW 22:26:46 10° N
Cosmos 1461 3.9 22:26:32 25° E 22:26:32 25° E 22:28:56 10° ENE
Cosmos 2151 3.8 22:23:00 10° NNW 22:26:55 42° W 22:28:56 24° SSW
Cosmos 1428 Rocket 4.5 22:21:35 10° N 22:27:53 80° E 22:31:20 28° SSE
Cosmos 2322 Rocket 2.2 22:22:18 10° NNW 22:27:59 78° ENE 22:31:03 28° SE
Cosmos 2034 Rocket 4.3 22:27:37 28° SSE 22:30:55 55° E 22:37:06 10° NNE
Cosmos 2082 Rocket 2.7 22:25:18 10° SW 22:30:58 63° NW 22:36:40 10° NNE
ATLAS 2AS CENTAUR R/B 4.2 22:25:16 10° W 22:31:40 39° NNW 22:37:59 10° NE
GRACE-FO 1 4.4 22:30:57 48° S 22:31:51 85° W 22:35:22 10° N
GRACE-FO 2 4.4 22:31:26 47° S 22:32:20 84° W 22:35:50 10° N
Cosmos 220 Rocket 4.1 22:32:36 41° SSE 22:33:28 49° ESE 22:37:25 10° NE
Meteor 1-5 Rocket 4.3 22:31:23 10° NNW 22:37:01 77° W 22:40:03 29° S
Cosmos 1536 3.9 22:33:55 10° N 22:37:10 29° ENE 22:38:06 26° E
Cosmos 1707 4.0 22:38:21 18° ENE 22:38:21 18° ENE 22:39:52 10° NE
USA 234 3.6 22:33:05 10° ENE 22:39:13 41° SE 22:42:49 23° SSW
COSMOS 2428 4.3 22:36:11 10° NNW 22:41:12 30° NE 22:46:12 10° ESE
Cosmos 2237 Rocket 4.5 22:40:02 10° NNW 22:44:13 20° NNE 22:48:24 10° ENE
Cosmos 1607 4.3 22:38:48 10° WSW 22:44:56 66° NW 22:51:14 10° NE
Okean 1-7 Rocket 3.8 22:41:01 10° NNW 22:45:25 64° W 22:47:08 35° SSW
IKONOS-2 4.5 22:42:11 10° NNE 22:46:19 78° WNW 22:48:04 34° SSW
Cosmos 1503 Rocket 3.9 22:41:32 10° NNW 22:46:47 85° ENE 22:49:02 35° SSE
Cosmos 1777 Rocket 4.0 22:41:48 10° NNW 22:47:03 78° WSW 22:49:16 35° SSE
Cosmos 2278 3.9 22:41:25 10° NW 22:47:04 63° WSW 22:49:38 32° S
Cosmos 1763 Rocket 4.2 22:45:39 31° SE 22:47:04 37° ESE 22:51:53 10° NE
Helios 1A 2.8 22:43:22 10° NNE 22:47:19 80° WNW 22:48:44 38° SSW
Cosmos-2242 3.6 22:47:28 34° ESE 22:48:15 38° E 22:52:05 10° NNE
Cosmos 909 Rocket 4.2 22:43:13 10° SW 22:49:30 75° NW 22:56:10 10° NE
Cosmos 990 Rocket 4.1 22:44:58 10° NNW 22:50:08 68° ENE 22:52:30 32° SE
Cosmos 1805 3.7 22:47:20 10° NNW 22:50:24 38° W 22:51:00 34° WSW
COSMOS 2406 3.3 22:49:26 16° SW 22:54:11 79° WNW 22:59:58 10° NNE
SL-16 R/B 2.8 22:49:00 10° NW 22:54:23 45° WSW 22:56:47 29° SSW
Cosmos 1606 Rocket 3.5 22:52:45 38° SSW 22:54:24 82° W 22:58:46 10° N
USA 290 3.5 22:56:48 29° E 22:56:48 29° E 22:58:58 10° NE
Cosmos 1354 Rocket 4.0 22:51:43 10° NNW 22:57:00 75° ENE 22:59:19 34° SE
CZ-4C R/B 3.4 22:52:32 10° W 22:57:01 41° NNW 23:02:50 10° NE
Cosmos 1486 Rocket 4.3 22:53:38 10° NNW 22:58:46 57° WSW 23:00:50 34° S
Nadezhda 4 Rocket 4.3 22:53:34 10° NNW 22:59:33 58° W 23:02:51 27° SSW
Cosmos 1634 Rocket 4.3 22:57:50 31° SSE 23:00:32 51° E 23:06:31 10° NNE
CSL-04 DEB 4.4 23:00:26 47° SW 23:01:02 54° WSW 23:04:35 10° NNW
Cosmos 1766 2.8 22:57:56 10° N 23:01:08 60° ENE 23:01:17 59° E
Cosmos 1470 3.8 23:00:53 10° N 23:03:43 26° ENE 23:04:12 25° E
Cosmos 2098 Rocket 3.9 23:02:09 24° SW 23:05:03 53° WNW 23:09:31 10° N
SeaSat 1 3.4 23:03:53 18° ESE 23:07:12 42° NE 23:11:49 10° NNW
Cosmos 2333 Rocket 2.9 23:02:07 10° NW 23:07:25 41° WSW 23:09:39 29° SSW
Cosmos 1726 Rocket 3.3 23:06:20 46° SSW 23:07:30 81° W 23:11:34 10° N
Cosmos 1076 Rocket 3.8 23:06:13 10° NNW 23:10:25 57° W 23:11:38 40° SSW
Cosmos 2221 4.0 23:09:57 21° ESE 23:10:41 22° E 23:13:54 10° NE
Meteor 2-2 Rocket 4.4 23:10:21 35° SSE 23:12:35 61° E 23:18:14 10° NNE
Cosmos 1842 4.2 23:13:51 26° E 23:13:51 26° E 23:16:15 10° NNE
BREEZE-M DEB (TANK) 3.6 23:08:30 10° W 23:16:53 57° S 23:21:43 10° ESE
CZ-2C R/B 3.4 23:16:22 24° ESE 23:19:09 44° ENE 23:24:06 10° N
Cosmos 1833 4.4 23:17:41 37° SSE 23:19:36 54° ESE 23:25:06 10° NE
Cosmos 2026 Rocket 4.2 23:17:55 10° NNW 23:24:13 66° W 23:27:17 32° SSW
Okean 1 3.8 23:23:58 36° WSW 23:24:50 44° WNW 23:28:18 10° N
Spot 4 3.9 23:23:21 41° S 23:24:53 66° WSW 23:29:40 10° NNW
KORONAS-FOTON 3.7 23:25:14 53° E 23:25:14 53° E 23:28:33 10° NNE
Helios 1B rocket 3.5 23:25:48 25° WSW 23:26:14 25° W 23:29:14 10° NW
SAR-Lupe-2 3.2 23:26:37 79° SSW 23:26:45 82° WSW 23:30:06 10° NNW
Cosmos 1975 3.4 23:24:05 10° N 23:27:35 40° ENE 23:28:17 36° ESE
Aureole 1 Rocket 3.7 23:23:56 10° NNW 23:29:07 84° ENE 23:32:03 33° SSE
NOSS 3-3 (A) 4.5 23:24:43 10° WSW 23:30:07 57° NNW 23:36:43 10° NE
Cosmos 2322 4.1 23:26:06 10° NNW 23:31:46 59° NE 23:35:16 23° SE
Cosmos 44 3.6 23:29:46 10° NW 23:35:14 78° NE 23:38:07 28° SE
Cosmos 2297 Rocket 4.2 23:33:58 12° ESE 23:35:34 13° E 23:38:01 10° ENE
Cosmos 1271 Rocket 3.1 23:38:07 41° E 23:38:07 41° E 23:41:18 10° NNE
Cosmos 372 Rocket 3.9 23:36:22 10° NNW 23:41:32 80° ENE 23:43:34 37° SE
RESURS DK-1 3.2 23:38:34 10° NNW 23:42:24 43° NE 23:44:13 26° ESE
Cosmos 1937 Rocket 4.1 23:37:44 10° NNW 23:42:46 50° ENE 23:45:41 24° ESE
Cosmos 2360 Rocket 3.0 23:39:06 10° NW 23:44:16 37° WSW 23:45:58 30° SW
ALOS 2 3.0 23:43:55 41° SW 23:44:56 49° W 23:49:14 10° NNW
ARIANE 5 R/B 3.3 23:44:33 35° SW 23:45:36 41° W 23:49:51 10° NNW
Meteor 1-11 Rocket 4.2 23:41:02 10° N 23:46:42 56° ENE 23:49:31 28° SE
Meteor 1-26 Rocket 4.3 23:45:25 32° SSW 23:47:57 67° WNW 23:53:34 10° N
GP-B 3.5 23:43:48 10° N 23:48:06 52° E 23:49:14 40° SE
Cosmos 2058 Rocket 3.2 23:48:52 42° SW 23:50:09 64° WNW 23:54:28 10° N
Cosmos 468 Rocket 4.1 23:51:08 41° S 23:52:48 62° ESE 23:58:01 10° NNE
